| time (UTC) | temp F | wind direction | speed MPH | gust MPH | rain 1hr in | rain 24hr in | rain mn in | humidity % | barometer mb |
| 20260506001511 | 66 | 262 | 0.0 | 3.0 | 0.00 | 0.00 | 0.00 | 49 | 1010.8 |
| 20260506001003 | 66 | 267 | 0.0 | 3.0 | 0.00 | 0.00 | 0.00 | 48 | 1010.8 |
| 20260506000506 | 67 | 266 | 1.0 | 3.0 | 0.00 | 0.00 | 0.00 | 45 | 1010.9 |
| 20260506000015 | 67 | 234 | 1.0 | 4.0 | 0.00 | 0.00 | 0.00 | 45 | 1010.9 |
| 20260505235507 | 68 | 279 | 1.0 | 5.0 | 0.00 | 0.00 | 0.00 | 44 | 1010.9 |
| 20260505235010 | 68 | 331 | 2.0 | 6.0 | 0.00 | 0.00 | 0.00 | 42 | 1011.0 |
| 20260505234522 | 68 | 289 | 2.0 | 6.0 | 0.00 | 0.00 | 0.00 | 41 | 1010.9 |
| 20260505234007 | 68 | 283 | 2.0 | 5.0 | 0.00 | 0.00 | 0.00 | 41 | 1010.7 |
| 20260505233506 | 69 | 294 | 1.0 | 4.0 | 0.00 | 0.00 | 0.00 | 41 | 1010.7 |
| 20260505233027 | 69 | 306 | 2.0 | 8.0 | 0.00 | 0.00 | 0.00 | 39 | 1010.7 |
| 20260505232509 | 70 | 302 | 2.0 | 8.0 | 0.00 | 0.00 | 0.00 | 39 | 1010.7 |
| 20260505232007 | 70 | 284 | 1.0 | 8.0 | 0.00 | 0.00 | 0.00 | 38 | 1010.6 |
| 20260505231512 | 71 | 301 | 3.0 | 9.0 | 0.00 | 0.00 | 0.00 | 36 | 1010.4 |
| 20260505231004 | 71 | 298 | 3.0 | 11.0 | 0.00 | 0.00 | 0.00 | 35 | 1010.4 |
| 20260505230504 | 72 | 296 | 5.0 | 11.0 | 0.00 | 0.00 | 0.00 | 36 | 1010.3 |
| 20260505230013 | 72 | 311 | 3.0 | 12.0 | 0.00 | 0.00 | 0.00 | 37 | 1010.2 |
| 20260505225504 | 72 | 321 | 6.0 | 12.0 | 0.00 | 0.00 | 0.00 | 34 | 1010.2 |
| 20260505225007 | 72 | 313 | 6.0 | 10.0 | 0.00 | 0.00 | 0.00 | 35 | 1010.2 |
| 20260505224527 | 72 | 309 | 5.0 | 11.0 | 0.00 | 0.00 | 0.00 | 35 | 1010.3 |
| 20260505224008 | 72 | 300 | 6.0 | 12.0 | 0.00 | 0.00 | 0.00 | 35 | 1010.4 |
| 20260505223506 | 73 | 267 | 8.0 | 12.0 | 0.00 | 0.00 | 0.00 | 33 | 1010.5 |
| 20260505223021 | 73 | 301 | 4.0 | 11.0 | 0.00 | 0.00 | 0.00 | 36 | 1010.6 |
| 20260505222510 | 73 | 296 | 5.0 | 12.0 | 0.00 | 0.00 | 0.00 | 35 | 1010.7 |
| 20260505222008 | 73 | 316 | 4.0 | 14.0 | 0.00 | 0.00 | 0.00 | 35 | 1010.9 |
| 20260505221526 | 73 | 306 | 7.0 | 14.0 | 0.00 | 0.00 | 0.00 | 36 | 1010.8 |
| 20260505221013 | 73 | 263 | 8.0 | 16.0 | 0.00 | 0.00 | 0.00 | 33 | 1010.8 |
| 20260505220502 | 73 | 240 | 7.0 | 16.0 | 0.00 | 0.00 | 0.00 | 33 | 1010.9 |
| 20260505220027 | 73 | 286 | 5.0 | 12.0 | 0.00 | 0.00 | 0.00 | 34 | 1010.9 |
| 20260505215506 | 73 | 302 | 5.0 | 12.0 | 0.00 | 0.00 | 0.00 | 35 | 1010.9 |
| 20260505215006 | 73 | 304 | 5.0 | 15.0 | 0.00 | 0.00 | 0.00 | 34 | 1010.8 |
| 20260505214521 | 73 | 332 | 8.0 | 15.0 | 0.00 | 0.00 | 0.00 | 33 | 1010.7 |
| 20260505214007 | 74 | 271 | 7.0 | 15.0 | 0.00 | 0.00 | 0.00 | 32 | 1010.7 |
| 20260505213506 | 74 | 328 | 3.0 | 12.0 | 0.00 | 0.00 | 0.00 | 31 | 1010.9 |
| 20260505213024 | 74 | 360 | 3.0 | 15.0 | 0.00 | 0.00 | 0.00 | 32 | 1010.7 |
| 20260505212510 | 74 | 292 | 9.0 | 15.0 | 0.00 | 0.00 | 0.00 | 32 | 1010.8 |
| 20260505212010 | 75 | 275 | 8.0 | 16.0 | 0.00 | 0.00 | 0.00 | 30 | 1010.7 |
| 20260505211503 | 75 | 284 | 5.0 | 20.0 | 0.00 | 0.00 | 0.00 | 29 | 1010.8 |
| 20260505211003 | 75 | 287 | 10.0 | 20.0 | 0.00 | 0.00 | 0.00 | 29 | 1010.8 |
| 20260505210502 | 75 | 236 | 6.0 | 16.0 | 0.00 | 0.00 | 0.00 | 32 | 1010.8 |
| 20260505210008 | 75 | 331 | 7.0 | 16.0 | 0.00 | 0.00 | 0.00 | 30 | 1010.7 |
| 20260505205506 | 75 | 294 | 6.0 | 13.0 | 0.00 | 0.00 | 0.00 | 30 | 1010.6 |
| 20260505205005 | 75 | 286 | 6.0 | 13.0 | 0.00 | 0.00 | 0.00 | 31 | 1010.7 |
| 20260505204514 | 74 | 326 | 2.0 | 14.0 | 0.00 | 0.00 | 0.00 | 32 | 1010.7 |
| 20260505204008 | 74 | 265 | 8.0 | 15.0 | 0.00 | 0.00 | 0.00 | 31 | 1010.7 |
| 20260505203507 | 74 | 315 | 8.0 | 20.0 | 0.00 | 0.00 | 0.00 | 33 | 1010.7 |
| 20260505203020 | 74 | 300 | 7.0 | 20.0 | 0.00 | 0.00 | 0.00 | 35 | 1010.7 |
| 20260505202507 | 74 | 300 | 8.0 | 20.0 | 0.00 | 0.00 | 0.00 | 34 | 1010.8 |
| 20260505202010 | 74 | 240 | 3.0 | 14.0 | 0.00 | 0.00 | 0.00 | 36 | 1010.9 |
| 20260505201523 | 74 | 332 | 6.0 | 16.0 | 0.00 | 0.00 | 0.00 | 35 | 1010.8 |
| 20260505201010 | 74 | 295 | 10.0 | 19.0 | 0.00 | 0.00 | 0.00 | 34 | 1010.8 |
| 20260505200510 | 74 | 242 | 8.0 | 19.0 | 0.00 | 0.00 | 0.00 | 33 | 1010.9 |
| 20260505200014 | 74 | 295 | 4.0 | 17.0 | 0.00 | 0.00 | 0.00 | 33 | 1010.9 |
| 20260505195503 | 74 | 275 | 9.0 | 18.0 | 0.00 | 0.00 | 0.00 | 34 | 1010.8 |
| 20260505195008 | 74 | 275 | 9.0 | 20.0 | 0.00 | 0.00 | 0.00 | 33 | 1011.0 |
| 20260505194514 | 74 | 315 | 9.0 | 20.0 | 0.00 | 0.00 | 0.00 | 34 | 1010.9 |
| 20260505194007 | 74 | 319 | 4.0 | 17.0 | 0.00 | 0.00 | 0.00 | 35 | 1011.0 |
| 20260505193507 | 74 | 298 | 5.0 | 13.0 | 0.00 | 0.00 | 0.00 | 37 | 1011.1 |
| 20260505193016 | 74 | 321 | 7.0 | 15.0 | 0.00 | 0.00 | 0.00 | 34 | 1011.0 |
| 20260505192507 | 73 | 198 | 7.0 | 15.0 | 0.00 | 0.00 | 0.00 | 35 | 1011.2 |
| 20260505192007 | 73 | 323 | 8.0 | 16.0 | 0.00 | 0.00 | 0.00 | 36 | 1011.2 |
| 20260505191528 | 74 | 332 | 10.0 | 18.0 | 0.00 | 0.00 | 0.00 | 35 | 1011.3 |
| 20260505191013 | 74 | 280 | 12.0 | 18.0 | 0.00 | 0.00 | 0.00 | 35 | 1011.3 |
| 20260505190513 | 74 | 272 | 6.0 | 18.0 | 0.00 | 0.00 | 0.00 | 33 | 1011.4 |
| 20260505190025 | 74 | 320 | 9.0 | 16.0 | 0.00 | 0.00 | 0.00 | 37 | 1011.4 |
| 20260505185510 | 74 | 298 | 8.0 | 22.0 | 0.00 | 0.00 | 0.00 | 36 | 1011.5 |
| 20260505185011 | 74 | 248 | 6.0 | 22.0 | 0.00 | 0.00 | 0.00 | 35 | 1011.6 |
| 20260505184511 | 74 | 319 | 7.0 | 15.0 | 0.00 | 0.00 | 0.00 | 36 | 1011.6 |
| 20260505184005 | 74 | 330 | 7.0 | 15.0 | 0.00 | 0.00 | 0.00 | 35 | 1011.6 |
| 20260505183506 | 74 | 207 | 6.0 | 15.0 | 0.00 | 0.00 | 0.00 | 35 | 1011.7 |
| 20260505183013 | 74 | 229 | 7.0 | 14.0 | 0.00 | 0.00 | 0.00 | 34 | 1011.8 |
| 20260505182506 | 74 | 231 | 4.0 | 19.0 | 0.00 | 0.00 | 0.00 | 37 | 1011.9 |
| 20260505182007 | 73 | 254 | 6.0 | 21.0 | 0.00 | 0.00 | 0.00 | 38 | 1011.8 |
| 20260505181522 | 73 | 254 | 9.0 | 22.0 | 0.00 | 0.00 | 0.00 | 36 | 1011.9 |
| 20260505181008 | 73 | 307 | 9.0 | 22.0 | 0.00 | 0.00 | 0.00 | 36 | 1012.1 |
| 20260505180509 | 73 | 267 | 7.0 | 13.0 | 0.00 | 0.00 | 0.00 | 40 | 1012.0 |
| 20260505180024 | 72 | 280 | 4.0 | 18.0 | 0.00 | 0.00 | 0.00 | 41 | 1012.0 |
| 20260505175508 | 72 | 336 | 8.0 | 18.0 | 0.00 | 0.00 | 0.00 | 38 | 1012.1 |
| 20260505175011 | 72 | 296 | 8.0 | 18.0 | 0.00 | 0.00 | 0.00 | 39 | 1012.1 |
| 20260505174528 | 72 | 270 | 4.0 | 17.0 | 0.00 | 0.00 | 0.00 | 39 | 1012.2 |
| 20260505174008 | 71 | 279 | 10.0 | 18.0 | 0.00 | 0.00 | 0.00 | 38 | 1012.3 |
| 20260505173510 | 72 | 233 | 4.0 | 18.0 | 0.00 | 0.00 | 0.00 | 41 | 1012.3 |
| 20260505173027 | 71 | 257 | 9.0 | 17.0 | 0.00 | 0.00 | 0.00 | 41 | 1012.6 |
| 20260505172505 | 71 | 163 | 6.0 | 19.0 | 0.00 | 0.00 | 0.00 | 39 | 1012.4 |
| 20260505172005 | 71 | 263 | 10.0 | 19.0 | 0.00 | 0.00 | 0.00 | 38 | 1012.5 |
| 20260505171516 | 71 | 214 | 8.0 | 17.0 | 0.00 | 0.00 | 0.00 | 39 | 1012.7 |
| 20260505171007 | 71 | 265 | 6.0 | 17.0 | 0.00 | 0.00 | 0.00 | 42 | 1012.6 |
| 20260505170508 | 71 | 238 | 6.0 | 21.0 | 0.00 | 0.00 | 0.00 | 41 | 1012.7 |
| 20260505170029 | 71 | 272 | 7.0 | 23.0 | 0.00 | 0.00 | 0.00 | 42 | 1012.8 |
| 20260505165506 | 71 | 242 | 6.0 | 23.0 | 0.00 | 0.00 | 0.00 | 41 | 1013.0 |
| 20260505165007 | 71 | 252 | 5.0 | 14.0 | 0.00 | 0.00 | 0.00 | 45 | 1012.8 |
| 20260505164525 | 71 | 273 | 7.0 | 20.0 | 0.00 | 0.00 | 0.00 | 42 | 1013.0 |
| 20260505164011 | 71 | 295 | 6.0 | 20.0 | 0.00 | 0.00 | 0.00 | 43 | 1012.8 |
| 20260505163513 | 71 | 289 | 10.0 | 20.0 | 0.00 | 0.00 | 0.00 | 43 | 1013.0 |
| 20260505163028 | 70 | 319 | 9.0 | 20.0 | 0.00 | 0.00 | 0.00 | 42 | 1012.8 |
| 20260505162516 | 70 | 311 | 9.0 | 26.0 | 0.00 | 0.00 | 0.00 | 42 | 1013.1 |
| 20260505162009 | 69 | 301 | 15.0 | 26.0 | 0.00 | 0.00 | 0.00 | 42 | 1013.2 |
| 20260505161540 | 70 | 273 | 5.0 | 19.0 | 0.00 | 0.00 | 0.00 | 44 | 1013.3 |
| 20260505161007 | 70 | 315 | 7.0 | 18.0 | 0.00 | 0.00 | 0.00 | 43 | 1013.3 |
| 20260505160510 | 69 | 262 | 10.0 | 18.0 | 0.00 | 0.00 | 0.00 | 45 | 1013.4 |
| 20260505153025 | 69 | 294 | 6.0 | 13.0 | 0.00 | 0.00 | 0.00 | 45 | 1013.7 |
| 20260505152505 | 68 | 251 | 4.0 | 18.0 | 0.00 | 0.00 | 0.00 | 45 | 1013.8 |
| 20260505152005 | 68 | 271 | 6.0 | 18.0 | 0.00 | 0.00 | 0.00 | 48 | 1013.9 |
| 20260505151512 | 68 | 5 | 8.0 | 17.0 | 0.00 | 0.00 | 0.00 | 47 | 1014.0 |
| 20260505151006 | 67 | 297 | 8.0 | 23.0 | 0.00 | 0.00 | 0.00 | 47 | 1014.1 |
| 20260505150503 | 67 | 319 | 11.0 | 23.0 | 0.00 | 0.00 | 0.00 | 47 | 1013.9 |
| 20260505140505 | 66 | 262 | 9.0 | 19.0 | 0.00 | 0.00 | 0.00 | 50 | 1014.4 |
| 20260505125008 | 64 | 243 | 7.0 | 14.0 | 0.00 | 0.00 | 0.00 | 53 | 1014.0 |
| 20260505124522 | 64 | 200 | 4.0 | 13.0 | 0.00 | 0.00 | 0.00 | 55 | 1014.1 |
| 20260505124007 | 64 | 190 | 4.0 | 9.0 | 0.00 | 0.00 | 0.00 | 56 | 1014.3 |
| 20260505123508 | 63 | 195 | 1.0 | 12.0 | 0.00 | 0.00 | 0.00 | 57 | 1014.4 |
| 20260505123003 | 62 | 178 | 4.0 | 12.0 | 0.00 | 0.00 | 0.00 | 58 | 1014.3 |
| 20260505122503 | 61 | 136 | 6.0 | 12.0 | 0.00 | 0.00 | 0.00 | 60 | 1014.2 |
| 20260505122004 | 60 | 136 | 2.0 | 7.0 | 0.00 | 0.00 | 0.00 | 64 | 1014.2 |
| 20260505121509 | 61 | 220 | 1.0 | 8.0 | 0.00 | 0.00 | 0.00 | 66 | 1014.4 |
| 20260505121003 | 60 | 225 | 3.0 | 11.0 | 0.00 | 0.00 | 0.00 | 63 | 1014.3 |
| 20260505120502 | 59 | 219 | 2.0 | 11.0 | 0.00 | 0.00 | 0.00 | 66 | 1014.3 |
| 20260505120007 | 59 | 209 | 4.0 | 12.0 | 0.00 | 0.00 | 0.00 | 64 | 1014.3 |
| 20260505115502 | 57 | 270 | 1.0 | 12.0 | 0.00 | 0.00 | 0.00 | 73 | 1014.3 |
| 20260505115003 | 55 | 146 | 3.0 | 7.0 | 0.00 | 0.00 | 0.00 | 74 | 1014.2 |
| 20260505114515 | 54 | 309 | 4.0 | 7.0 | 0.00 | 0.00 | 0.00 | 78 | 1014.2 |
| 20260505114007 | 54 | 313 | 3.0 | 7.0 | 0.00 | 0.00 | 0.00 | 79 | 1014.3 |
| 20260505113507 | 52 | 333 | 1.0 | 4.0 | 0.00 | 0.00 | 0.00 | 82 | 1014.3 |
| 20260505113020 | 52 | 303 | 1.0 | 5.0 | 0.00 | 0.00 | 0.00 | 83 | 1014.4 |
| 20260505112510 | 51 | 304 | 3.0 | 5.0 | 0.00 | 0.00 | 0.00 | 83 | 1014.4 |
| 20260505112010 | 51 | 321 | 2.0 | 4.0 | 0.00 | 0.00 | 0.00 | 82 | 1014.3 |
| 20260505111503 | 51 | 283 | 2.0 | 8.0 | 0.00 | 0.00 | 0.00 | 82 | 1014.1 |
| 20260505111013 | 52 | 302 | 2.0 | 10.0 | 0.00 | 0.00 | 0.00 | 80 | 1014.1 |
| 20260505110503 | 52 | 134 | 3.0 | 10.0 | 0.00 | 0.00 | 0.00 | 80 | 1013.8 |
| 20260505102006 | 51 | 248 | 3.0 | 12.0 | 0.00 | 0.00 | 0.00 | 79 | 1013.4 |
| 20260505101535 | 52 | 305 | 3.0 | 7.0 | 0.00 | 0.00 | 0.00 | 79 | 1013.3 |
| 20260505101009 | 53 | 309 | 3.0 | 8.0 | 0.00 | 0.00 | 0.00 | 76 | 1013.2 |
| 20260505100510 | 54 | 300 | 4.0 | 8.0 | 0.00 | 0.00 | 0.00 | 75 | 1013.2 |
| 20260505100026 | 51 | 252 | 3.0 | 7.0 | 0.00 | 0.00 | 0.00 | 80 | 1013.1 |
| 20260505095505 | 52 | 296 | 3.0 | 10.0 | 0.00 | 0.00 | 0.00 | 79 | 1013.2 |
| 20260505095004 | 52 | 286 | 3.0 | 10.0 | 0.00 | 0.00 | 0.00 | 78 | 1013.1 |
| 20260505094508 | 51 | 161 | 3.0 | 8.0 | 0.00 | 0.00 | 0.00 | 79 | 1013.0 |
| 20260505094007 | 51 | 285 | 3.0 | 6.0 | 0.00 | 0.00 | 0.00 | 79 | 1013.0 |
| 20260505093504 | 51 | 244 | 1.0 | 8.0 | 0.00 | 0.00 | 0.00 | 78 | 1013.0 |
| 20260505093028 | 52 | 312 | 2.0 | 8.0 | 0.00 | 0.00 | 0.00 | 79 | 1013.0 |
| 20260505092504 | 51 | 274 | 2.0 | 6.0 | 0.00 | 0.00 | 0.00 | 80 | 1012.9 |
| 20260505092004 | 51 | 294 | 3.0 | 6.0 | 0.00 | 0.00 | 0.00 | 80 | 1012.9 |
| 20260505091520 | 50 | 269 | 2.0 | 10.0 | 0.00 | 0.00 | 0.00 | 82 | 1012.9 |
| 20260505091009 | 50 | 329 | 3.0 | 10.0 | 0.00 | 0.00 | 0.00 | 82 | 1012.9 |
| 20260505090506 | 49 | 254 | 3.0 | 8.0 | 0.00 | 0.00 | 0.00 | 85 | 1013.0 |
| 20260505090037 | 48 | 262 | 2.0 | 7.0 | 0.00 | 0.00 | 0.00 | 87 | 1012.8 |
| 20260505085509 | 46 | 262 | 1.0 | 5.0 | 0.00 | 0.00 | 0.00 | 90 | 1012.9 |
| 20260505085012 | 46 | 351 | 1.0 | 5.0 | 0.00 | 0.00 | 0.00 | 91 | 1012.8 |
| 20260505084527 | 46 | 314 | 1.0 | 5.0 | 0.00 | 0.00 | 0.00 | 90 | 1012.9 |
| 20260505084004 | 46 | 254 | 0.0 | 2.0 | 0.00 | 0.00 | 0.00 | 91 | 1012.8 |
| 20260505083504 | 46 | 254 | 0.0 | 3.0 | 0.00 | 0.00 | 0.00 | 90 | 1012.7 |
| 20260505083011 | 46 | 234 | 0.0 | 3.0 | 0.00 | 0.00 | 0.00 | 91 | 1012.7 |
| 20260505082510 | 45 | 212 | 1.0 | 3.0 | 0.00 | 0.00 | 0.00 | 91 | 1012.7 |
| 20260505082004 | 45 | 306 | 0.0 | 1.0 | 0.00 | 0.00 | 0.00 | 91 | 1012.6 |
| 20260505081517 | 45 | 306 | 0.0 | 3.0 | 0.00 | 0.00 | 0.00 | 92 | 1012.5 |
| 20260505081008 | 45 | 306 | 1.0 | 3.0 | 0.00 | 0.00 | 0.00 | 92 | 1012.6 |
| 20260505080506 | 45 | 305 | 1.0 | 3.0 | 0.00 | 0.00 | 0.00 | 91 | 1012.6 |
| 20260505080037 | 45 | 308 | 1.0 | 4.0 | 0.00 | 0.00 | 0.00 | 92 | 1012.4 |
| 20260505075506 | 45 | 315 | 0.0 | 4.0 | 0.00 | 0.00 | 0.00 | 91 | 1012.4 |
| 20260505075007 | 45 | 211 | 1.0 | 3.0 | 0.00 | 0.00 | 0.00 | 92 | 1012.4 |
| 20260505074527 | 45 | 274 | 0.0 | 3.0 | 0.00 | 0.00 | 0.00 | 91 | 1012.4 |
| 20260505074011 | 45 | 314 | 1.0 | 3.0 | 0.00 | 0.00 | 0.00 | 91 | 1012.3 |
| 20260505073511 | 45 | 263 | 1.0 | 3.0 | 0.00 | 0.00 | 0.00 | 91 | 1012.3 |
| 20260505073033 | 45 | 300 | 0.0 | 3.0 | 0.00 | 0.00 | 0.00 | 91 | 1012.3 |
| 20260505072508 | 45 | 321 | 0.0 | 4.0 | 0.00 | 0.00 | 0.00 | 91 | 1012.3 |
| 20260505072003 | 45 | 215 | 1.0 | 4.0 | 0.00 | 0.00 | 0.00 | 91 | 1012.2 |
| 20260505071515 | 45 | 304 | 3.0 | 4.0 | 0.00 | 0.00 | 0.00 | 91 | 1012.2 |
| 20260505071007 | 45 | 261 | 1.0 | 3.0 | 0.00 | 0.00 | 0.00 | 91 | 1012.2 |
| 20260505070507 | 45 | 313 | 1.0 | 3.0 | 0.00 | 0.00 | 0.00 | 91 | 1012.2 |
| 20260505070024 | 45 | 267 | 1.0 | 5.0 | 0.00 | 0.00 | 0.00 | 92 | 1012.2 |
| 20260505065507 | 45 | 262 | 2.0 | 5.0 | 0.00 | 0.00 | 0.00 | 92 | 1012.2 |
| 20260505065006 | 45 | 310 | 2.0 | 4.0 | 0.00 | 0.00 | 0.00 | 92 | 1012.3 |
| 20260505064528 | 45 | 276 | 0.0 | 5.0 | 0.00 | 0.00 | 0.00 | 92 | 1012.3 |
| 20260505064009 | 45 | 276 | 1.0 | 5.0 | 0.00 | 0.00 | 0.00 | 92 | 1012.3 |
| 20260505063507 | 45 | 319 | 1.0 | 3.0 | 0.00 | 0.00 | 0.00 | 92 | 1012.3 |
| 20260505063028 | 45 | 279 | 0.0 | 3.0 | 0.00 | 0.00 | 0.00 | 92 | 1012.3 |
| 20260505062504 | 45 | 305 | 0.0 | 2.0 | 0.00 | 0.00 | 0.00 | 92 | 1012.4 |
| 20260505062004 | 45 | 305 | 0.0 | 2.0 | 0.00 | 0.00 | 0.00 | 91 | 1012.3 |
| 20260505061504 | 45 | 305 | 1.0 | 2.0 | 0.00 | 0.00 | 0.00 | 91 | 1012.3 |
| 20260505061002 | 45 | 305 | 0.0 | 4.0 | 0.00 | 0.00 | 0.00 | 91 | 1012.3 |
| 20260505060503 | 45 | 269 | 1.0 | 4.0 | 0.00 | 0.00 | 0.00 | 91 | 1012.4 |
| 20260505060005 | 46 | 300 | 2.0 | 6.0 | 0.00 | 0.00 | 0.00 | 90 | 1012.3 |
| 20260505055504 | 46 | 295 | 1.0 | 6.0 | 0.00 | 0.00 | 0.00 | 91 | 1012.4 |
| 20260505055004 | 46 | 300 | 2.0 | 3.0 | 0.00 | 0.00 | 0.00 | 90 | 1012.4 |
| 20260505054504 | 46 | 322 | 1.0 | 4.0 | 0.00 | 0.00 | 0.00 | 90 | 1012.4 |
| 20260505054003 | 46 | 257 | 0.0 | 4.0 | 0.00 | 0.00 | 0.00 | 91 | 1012.4 |
| 20260505053503 | 46 | 301 | 2.0 | 3.0 | 0.00 | 0.00 | 0.00 | 90 | 1012.4 |
| 20260505053004 | 46 | 281 | 2.0 | 4.0 | 0.00 | 0.00 | 0.00 | 90 | 1012.4 |
| 20260505052504 | 46 | 274 | 2.0 | 5.0 | 0.00 | 0.00 | 0.00 | 90 | 1012.4 |
| 20260505052004 | 46 | 293 | 2.0 | 5.0 | 0.00 | 0.00 | 0.00 | 90 | 1012.4 |
| 20260505051503 | 47 | 311 | 3.0 | 4.0 | 0.00 | 0.00 | 0.00 | 89 | 1012.4 |
| 20260505051004 | 47 | 296 | 1.0 | 4.0 | 0.00 | 0.00 | 0.00 | 89 | 1012.5 |
| 20260505050504 | 47 | 308 | 0.0 | 3.0 | 0.00 | 0.00 | 0.00 | 88 | 1012.5 |
| 20260505041509 | 47 | 300 | 1.0 | 4.0 | 0.00 | 0.00 | 0.00 | 89 | 1012.1 |
| 20260505041003 | 47 | 321 | 2.0 | 5.0 | 0.00 | 0.00 | 0.00 | 89 | 1012.1 |
| 20260505040503 | 47 | 301 | 2.0 | 5.0 | 0.00 | 0.00 | 0.00 | 89 | 1012.2 |
| 20260505040010 | 48 | 313 | 2.0 | 3.0 | 0.00 | 0.00 | 0.00 | 89 | 1012.1 |
| 20260505035508 | 48 | 311 | 1.0 | 3.0 | 0.00 | 0.00 | 0.00 | 88 | 1012.1 |
| 20260505035008 | 48 | 299 | 0.0 | 3.0 | 0.00 | 0.00 | 0.00 | 88 | 1012.1 |
| 20260505034507 | 48 | 299 | 0.0 | 4.0 | 0.00 | 0.00 | 0.00 | 88 | 1012.1 |
| 20260505034004 | 48 | 306 | 3.0 | 4.0 | 0.00 | 0.00 | 0.00 | 89 | 1012.1 |
| 20260505033503 | 48 | 304 | 2.0 | 4.0 | 0.00 | 0.00 | 0.00 | 88 | 1012.1 |
| 20260505033010 | 48 | 298 | 2.0 | 3.0 | 0.00 | 0.00 | 0.00 | 88 | 1012.1 |
| 20260505032503 | 48 | 309 | 1.0 | 3.0 | 0.00 | 0.00 | 0.00 | 87 | 1012.1 |
| 20260505032005 | 49 | 309 | 0.0 | 3.0 | 0.00 | 0.00 | 0.00 | 87 | 1012.1 |
| 20260505031512 | 49 | 309 | 1.0 | 3.0 | 0.00 | 0.00 | 0.00 | 86 | 1012.1 |
| 20260505031005 | 49 | 309 | 2.0 | 3.0 | 0.00 | 0.00 | 0.00 | 86 | 1012.1 |
| 20260505030504 | 50 | 309 | 1.0 | 3.0 | 0.00 | 0.00 | 0.00 | 85 | 1012.2 |
| 20260505030007 | 50 | 309 | 1.0 | 3.0 | 0.00 | 0.00 | 0.00 | 85 | 1012.2 |
| 20260505025504 | 50 | 309 | 1.0 | 3.0 | 0.00 | 0.00 | 0.00 | 85 | 1012.1 |
| 20260505025004 | 50 | 309 | 2.0 | 3.0 | 0.00 | 0.00 | 0.00 | 85 | 1012.2 |
| 20260505024510 | 50 | 309 | 0.0 | 3.0 | 0.00 | 0.00 | 0.00 | 85 | 1012.2 |
| 20260505024008 | 50 | 309 | 1.0 | 3.0 | 0.00 | 0.00 | 0.00 | 84 | 1012.1 |
| 20260505023503 | 51 | 309 | 2.0 | 3.0 | 0.00 | 0.00 | 0.00 | 84 | 1012.1 |
| 20260505023010 | 51 | 309 | 0.0 | 3.0 | 0.00 | 0.00 | 0.00 | 83 | 1012.1 |
| 20260505022503 | 51 | 309 | 1.0 | 3.0 | 0.00 | 0.00 | 0.00 | 83 | 1012.1 |
| 20260505022006 | 51 | 309 | 0.0 | 4.0 | 0.00 | 0.00 | 0.00 | 82 | 1012.0 |
| 20260505021515 | 51 | 309 | 0.0 | 4.0 | 0.00 | 0.00 | 0.00 | 82 | 1012.0 |
| 20260505021003 | 52 | 321 | 2.0 | 3.0 | 0.00 | 0.00 | 0.00 | 81 | 1012.0 |
| 20260505020505 | 52 | 293 | 1.0 | 3.0 | 0.00 | 0.00 | 0.00 | 80 | 1012.0 |
| 20260505020017 | 53 | 293 | 0.0 | 4.0 | 0.00 | 0.00 | 0.00 | 79 | 1012.0 |
| 20260505015508 | 53 | 294 | 2.0 | 4.0 | 0.00 | 0.00 | 0.00 | 78 | 1012.0 |
| 20260505015004 | 53 | 288 | 2.0 | 4.0 | 0.00 | 0.00 | 0.00 | 77 | 1012.1 |
| 20260505014515 | 53 | 292 | 2.0 | 6.0 | 0.00 | 0.00 | 0.00 | 77 | 1012.1 |
| 20260505014003 | 54 | 289 | 2.0 | 6.0 | 0.00 | 0.00 | 0.00 | 76 | 1012.1 |
| 20260505013507 | 54 | 273 | 3.0 | 6.0 | 0.00 | 0.00 | 0.00 | 75 | 1012.0 |
| 20260505013016 | 54 | 282 | 2.0 | 6.0 | 0.00 | 0.00 | 0.00 | 75 | 1012.0 |
| 20260505012504 | 56 | 306 | 2.0 | 6.0 | 0.00 | 0.00 | 0.00 | 73 | 1012.0 |
| 20260505012004 | 56 | 273 | 2.0 | 7.0 | 0.00 | 0.00 | 0.00 | 71 | 1012.0 |
| 20260505011515 | 56 | 279 | 3.0 | 7.0 | 0.00 | 0.00 | 0.00 | 71 | 1011.9 |
| 20260505011006 | 57 | 275 | 4.0 | 7.0 | 0.00 | 0.00 | 0.00 | 70 | 1011.9 |
| 20260505010507 | 57 | 284 | 3.0 | 7.0 | 0.00 | 0.00 | 0.00 | 69 | 1011.9 |
| 20260505010020 | 57 | 281 | 4.0 | 7.0 | 0.00 | 0.00 | 0.00 | 69 | 1011.8 |
| 20260505005504 | 58 | 279 | 3.0 | 7.0 | 0.00 | 0.00 | 0.00 | 67 | 1011.8 |
| 20260505005008 | 58 | 279 | 3.0 | 7.0 | 0.00 | 0.00 | 0.00 | 67 | 1011.7 |
| 20260505004518 | 58 | 293 | 3.0 | 6.0 | 0.00 | 0.00 | 0.00 | 67 | 1011.7 |
| 20260505004006 | 59 | 276 | 2.0 | 3.0 | 0.00 | 0.00 | 0.00 | 66 | 1011.7 |
| 20260505003504 | 59 | 280 | 2.0 | 3.0 | 0.00 | 0.00 | 0.00 | 65 | 1011.7 |
| 20260505003013 | 60 | 272 | 2.0 | 3.0 | 0.00 | 0.00 | 0.00 | 64 | 1011.7 |
| 20260505002504 | 61 | 293 | 2.0 | 3.0 | 0.00 | 0.00 | 0.00 | 61 | 1011.7 |
| 20260505002009 | 62 | 269 | 0.0 | 3.0 | 0.00 | 0.00 | 0.00 | 59 | 1011.7 |